When you browse on this site, cookies collect data to enhance your experience and personalize the content and advertising you see.
Visit our Privacy Policy to learn more. By continuing to use the site, you agree to this use of cookies and data.
EN

Hourly Weather Godzieszowa

Today, 25 September, Friday

Time Temperature Precipitation Wind Pressure Humidity
00:00 +17°C° 0 mm 2 mps 739 mmHg 78%
01:00 +17°C° 0 mm 3 mps 739 mmHg 78%
02:00 +16°C° 0 mm 3 mps 738 mmHg 78%
03:00 +15°C° 0 mm 4 mps 737 mmHg 78%
04:00 +15°C° 0 mm 4 mps 737 mmHg 78%
05:00 +16°C° 0 mm 5 mps 736 mmHg 74%
06:00 +17°C° 0 mm 6 mps 735 mmHg 71%
07:00 +17°C° 0 mm 7 mps 735 mmHg 68%
08:00 +20°C° 0 mm 7 mps 734 mmHg 65%
09:00 +21°C° 0 mm 7 mps 734 mmHg 62%
10:00 +22°C° 0 mm 8 mps 734 mmHg 59%
11:00 +20°C° 1 mm 7 mps 734 mmHg 68%
12:00 +19°C° 1 mm 6 mps 734 mmHg 77%
13:00 +16°C° 1 mm 6 mps 733 mmHg 86%
14:00 +15°C° 0.4 mm 4 mps 733 mmHg 87%
15:00 +16°C° 0.4 mm 3 mps 733 mmHg 88%
16:00 +15°C° 0.4 mm 2 mps 733 mmHg 89%
17:00 +15°C° 0 mm 2 mps 733 mmHg 90%
18:00 +15°C° 0 mm 1 mps 733 mmHg 91%
19:00 +15°C° 0 mm 1 mps 733 mmHg 91%
20:00 +14°C° 0 mm 1 mps 733 mmHg 92%
21:00 +14°C° 0 mm 1 mps 733 mmHg 93%
22:00 +13°C° 0 mm 1 mps 733 mmHg 94%
23:00 +14°C° 0.2 mm 1 mps 733 mmHg 95%

Tomorrow, 26 September, Saturday

Time Temperature Precipitation Wind Pressure Humidity
00:00 +14°C° 0.2 mm 2 mps 732 mmHg 95%
01:00 +14°C° 0.2 mm 2 mps 732 mmHg 95%
02:00 +13°C° 0.6 mm 3 mps 731 mmHg 94%
03:00 +13°C° 0.6 mm 4 mps 730 mmHg 93%
04:00 +13°C° 0.6 mm 5 mps 729 mmHg 92%
05:00 +13°C° 0.4 mm 5 mps 729 mmHg 92%
06:00 +13°C° 0.4 mm 6 mps 728 mmHg 92%
07:00 +13°C° 0.4 mm 6 mps 728 mmHg 92%
08:00 +14°C° 0.6 mm 6 mps 728 mmHg 92%
09:00 +15°C° 0.6 mm 5 mps 728 mmHg 91%
10:00 +15°C° 0.6 mm 5 mps 728 mmHg 91%
11:00 +16°C° 0.1 mm 5 mps 729 mmHg 84%
12:00 +16°C° 0.1 mm 6 mps 729 mmHg 76%
13:00 +17°C° 0.1 mm 6 mps 729 mmHg 69%
14:00 +16°C° 0 mm 6 mps 730 mmHg 68%
15:00 +15°C° 0 mm 6 mps 731 mmHg 67%
16:00 +14°C° 0 mm 7 mps 731 mmHg 66%
17:00 +13°C° 0 mm 6 mps 732 mmHg 67%
18:00 +10°C° 0 mm 6 mps 732 mmHg 68%
19:00 +9°C° 0 mm 5 mps 733 mmHg 69%
20:00 +9°C° 0 mm 5 mps 733 mmHg 70%
21:00 +8°C° 0 mm 5 mps 734 mmHg 72%
22:00 +8°C° 0 mm 5 mps 735 mmHg 73%
23:00 +8°C° 0 mm 4 mps 735 mmHg 74%

Day after tomorrow, 27 September, Sunday

Time Temperature Precipitation Wind Pressure Humidity
00:00 +7°C° 0 mm 4 mps 735 mmHg 76%
01:00 +8°C° 0 mm 3 mps 736 mmHg 77%
02:00 +8°C° 0 mm 3 mps 736 mmHg 78%
03:00 +8°C° 0 mm 3 mps 736 mmHg 78%
04:00 +7°C° 0 mm 3 mps 736 mmHg 79%
05:00 +8°C° 0 mm 3 mps 736 mmHg 79%
06:00 +8°C° 0 mm 2 mps 737 mmHg 78%
07:00 +8°C° 0 mm 2 mps 737 mmHg 78%
08:00 +9°C° 0 mm 2 mps 737 mmHg 73%
09:00 +12°C° 0 mm 2 mps 737 mmHg 67%
10:00 +12°C° 0 mm 3 mps 738 mmHg 62%
11:00 +12°C° 0 mm 3 mps 738 mmHg 63%
12:00 +12°C° 0 mm 4 mps 737 mmHg 64%
13:00 +12°C° 0 mm 4 mps 737 mmHg 64%
14:00 +12°C° 0.3 mm 4 mps 737 mmHg 68%
15:00 +12°C° 0.3 mm 4 mps 737 mmHg 72%
16:00 +11°C° 0.3 mm 4 mps 738 mmHg 76%
17:00 +11°C° 1 mm 4 mps 738 mmHg 80%
18:00 +11°C° 1 mm 4 mps 738 mmHg 84%
19:00 +10°C° 1 mm 3 mps 738 mmHg 88%
20:00 +10°C° 1.1 mm 4 mps 738 mmHg 88%
21:00 +10°C° 1.1 mm 4 mps 739 mmHg 88%
22:00 +10°C° 1.1 mm 4 mps 739 mmHg 88%
23:00 +10°C° 1 mm 4 mps 739 mmHg 87%

28 September, Monday

Time Temperature Precipitation Wind Pressure Humidity
00:00 +10°C° 1 mm 4 mps 739 mmHg 86%
01:00 +10°C° 1 mm 4 mps 739 mmHg 85%
02:00 +9°C° 0.4 mm 5 mps 739 mmHg 86%
03:00 +9°C° 0.4 mm 6 mps 739 mmHg 86%
04:00 +9°C° 0.4 mm 6 mps 739 mmHg 86%
05:00 +9°C° 0.3 mm 6 mps 739 mmHg 84%
06:00 +9°C° 0.3 mm 6 mps 739 mmHg 83%
07:00 +9°C° 0.3 mm 6 mps 739 mmHg 81%
08:00 +9°C° 0 mm 5 mps 739 mmHg 79%
09:00 +9°C° 0 mm 5 mps 740 mmHg 77%
10:00 +11°C° 0 mm 4 mps 740 mmHg 75%
11:00 +11°C° 0.2 mm 4 mps 740 mmHg 74%
12:00 +12°C° 0.2 mm 5 mps 740 mmHg 72%
13:00 +12°C° 0.2 mm 5 mps 741 mmHg 71%
14:00 +12°C° 0.1 mm 5 mps 741 mmHg 70%
15:00 +13°C° 0.1 mm 4 mps 741 mmHg 70%
16:00 +13°C° 0.1 mm 3 mps 741 mmHg 69%
17:00 +12°C° 0.2 mm 3 mps 741 mmHg 71%
18:00 +12°C° 0.2 mm 3 mps 741 mmHg 74%
19:00 +11°C° 0.2 mm 3 mps 741 mmHg 76%
20:00 +11°C° 0 mm 4 mps 741 mmHg 76%
21:00 +11°C° 0 mm 4 mps 742 mmHg 77%
22:00 +10°C° 0 mm 5 mps 742 mmHg 77%
23:00 +11°C° 0 mm 4 mps 742 mmHg 78%

29 September, Tuesday

Time Temperature Precipitation Wind Pressure Humidity
00:00 +11°C° 0 mm 4 mps 742 mmHg 79%
01:00 +11°C° 0 mm 4 mps 742 mmHg 80%
02:00 +11°C° 0.1 mm 4 mps 741 mmHg 81%
03:00 +11°C° 0.1 mm 4 mps 741 mmHg 82%
04:00 +10°C° 0.1 mm 3 mps 741 mmHg 83%
05:00 +11°C° 0.5 mm 3 mps 742 mmHg 86%
06:00 +11°C° 0.5 mm 3 mps 742 mmHg 88%
07:00 +11°C° 0.5 mm 3 mps 742 mmHg 91%
08:00 +12°C° 0.1 mm 3 mps 742 mmHg 88%
09:00 +12°C° 0.1 mm 4 mps 742 mmHg 85%
10:00 +13°C° 0.1 mm 4 mps 742 mmHg 82%
11:00 +13°C° 0.5 mm 4 mps 742 mmHg 81%
12:00 +13°C° 0.5 mm 4 mps 743 mmHg 80%
13:00 +14°C° 0.5 mm 3 mps 743 mmHg 79%
14:00 +13°C° 0.3 mm 3 mps 743 mmHg 81%
15:00 +14°C° 0.3 mm 2 mps 743 mmHg 84%
16:00 +14°C° 0.3 mm 2 mps 743 mmHg 86%
17:00 +13°C° 0.2 mm 2 mps 744 mmHg 88%
18:00 +13°C° 0.2 mm 2 mps 744 mmHg 90%
19:00 +12°C° 0.2 mm 2 mps 744 mmHg 92%
20:00 +12°C° 0 mm 2 mps 745 mmHg 93%
21:00 +10°C° 0 mm 2 mps 745 mmHg 94%
22:00 +10°C° 0 mm 2 mps 745 mmHg 96%
23:00 +10°C° 0 mm 2 mps 745 mmHg 96%

30 September, Wednesday

Time Temperature Precipitation Wind Pressure Humidity
00:00 +9°C° 0 mm 2 mps 745 mmHg 96%
01:00 +9°C° 0 mm 2 mps 745 mmHg 96%
02:00 +9°C° 0 mm 2 mps 745 mmHg 96%
03:00 +9°C° 0 mm 2 mps 746 mmHg 97%
04:00 +9°C° 0 mm 2 mps 746 mmHg 97%
05:00 +9°C° 0 mm 2 mps 746 mmHg 97%
06:00 +9°C° 0 mm 3 mps 746 mmHg 96%
07:00 +9°C° 0 mm 3 mps 746 mmHg 96%
08:00 +11°C° 0 mm 3 mps 746 mmHg 91%
09:00 +12°C° 0 mm 4 mps 746 mmHg 86%
10:00 +13°C° 0 mm 4 mps 746 mmHg 81%
11:00 +14°C° 0 mm 5 mps 746 mmHg 77%
12:00 +15°C° 0 mm 5 mps 746 mmHg 74%
13:00 +15°C° 0 mm 5 mps 745 mmHg 70%
14:00 +15°C° 0 mm 5 mps 745 mmHg 71%
15:00 +15°C° 0 mm 5 mps 745 mmHg 71%
16:00 +15°C° 0 mm 5 mps 745 mmHg 72%
17:00 +14°C° 0 mm 4 mps 745 mmHg 76%
18:00 +13°C° 0 mm 4 mps 745 mmHg 80%
19:00 +12°C° 0 mm 4 mps 745 mmHg 84%
20:00 +12°C° 0 mm 4 mps 745 mmHg 85%
21:00 +12°C° 0 mm 4 mps 745 mmHg 86%
22:00 +11°C° 0 mm 4 mps 745 mmHg 88%
23:00 +12°C° 0 mm 4 mps 744 mmHg 85%
Show more